Regional Weather Roundup
Issued by NWS

Home | Current Version | Previous Version | Graphics & Text | Print | Product List | Glossary On
Versions: 1 2 3 4 5 6 7 8 9 10 11 12 13 14 15 16 17 18 19 20 21 22 23 24 25 26 27 28 29 30 31 32 33 34 35 36 37 38 39 40 41 42 43 44 45 46 47 48 49 50
000
ASUS45 KTFX 262010
RWRMT
MONTANA HOURLY WEATHER ROUNDUP
NATIONAL WEATHER SERVICE MISSOULA MT
100 PM MST THU FEB 26 2015

NOTE: "FAIR" INDICATES FEW OR NO CLOUDS BELOW 12,000 FEET WITH NO
SIGNIFICANT WEATHER AND/OR OBSTRUCTIONS TO VISIBILITY.

MTZ001>007-043-262100-
WEST OF THE DIVIDE

CITY           SKY/WX    TMP DP  RH WIND       PRES   REMARKS
KALISPELL      CLEAR     33  12  41 VRB3      30.15F
MISSOULA       SUNNY     33  15  47 E15       30.13F
BUTTE          SUNNY     21  12  68 S14       30.04F WCI   8
$$

MTZ008-014-015-262100-
SOUTHWEST MONTANA

CITY           SKY/WX    TMP DP  RH WIND       PRES   REMARKS
HELENA         SUNNY     21   7  54 CALM      30.21F
BOZEMAN        CLOUDY    19   9  65 CALM      30.16F
DILLON         PTSUNNY   24  13  62 NE10      30.05F WCI  14
$$

MTZ009-010-012-262100-
EAST SLOPES

CITY           SKY/WX    TMP DP  RH WIND       PRES   REMARKS
CUT BANK       CLOUDY    11   6  81 S14       30.25F WCI  -5
GREAT FALLS    CLOUDY    13   7  77 E7        30.27F WCI   3
$$

MTZ011-013-028-029-040-262100-
CENTRAL MONTANA

CITY           SKY/WX    TMP DP  RH WIND       PRES   REMARKS
HAVRE          PTSUNNY   17  32 100 E6        30.41F WCI   9
LEWISTOWN      SUNNY     12   3  67 E8        30.27F WCI   0
BILLINGS       PTSUNNY   11   2  67 E10       30.34F WCI  -3
LIVINGSTON     MOSUNNY   14   4  64 E16       30.20F WCI  -2
$$

MTZ016>027-032-033-262100-
EASTERN PLAINS

CITY           SKY/WX    TMP DP  RH WIND       PRES   REMARKS
GLASGOW        SUNNY      9 -10  42 S6        30.52F WCI  -1
WOLF POINT     SUNNY     11  -8  42 SW5       30.57F WCI   3
SIDNEY         SUNNY     10  -2  56 N7        30.59F WCI   0
JORDAN           N/A     11  -8  42 VRB6      30.47F WCI   1
GLENDIVE       SUNNY      9  -6  52 CALM      30.51F
MILES CITY     SUNNY      9  -3  58 CALM      30.48F
BAKER          SUNNY      9  -1  64 VRB6      30.45F WCI  -1
$$

REGIONAL REPORTS...DAKOTAS

CITY           SKY/WX    TMP DP  RH WIND       PRES   REMARKS
WILLISTON      SUNNY      7  -5  57 NW8       30.57F WCI  -6
MINOT          SUNNY      5  -7  57 W14       30.53F WCI -12
DICKINSON      SUNNY      9  -3  58 NW9       30.46F WCI  -4
BISMARCK       SUNNY      8  -6  52 NW15G21   30.56F WCI  -9
BUFFALO SD       N/A      8  -6  52 N9        30.36F WCI  -5
RAPID CITY     MOSUNNY    8  -1  66 N17       30.41F WCI -10
$$

REGIONAL REPORTS...WYOMING/IDAHO/WASHINGTON

CITY           SKY/WX    TMP DP  RH WIND       PRES   REMARKS
GILLETTE       CLOUDY     8  -1  66 N5        30.28F WCI   0
SHERIDAN       CLOUDY    11   0  61 CALM      30.32F
BUFFALO WY     FLURRIES   7  -1  70 N5        30.23F WCI  -2
CODY           CLOUDY    12   9  85 NE10      30.16F WCI  -1
YELLOWSTONE LA   N/A     19   4  51 SE5       29.92F WCI  12
IDAHO FALLS    MOSUNNY   38  12  34 VRB7      29.97F
SALMON         CLOUDY    36  19  51 N6        30.01F
BOISE          PTSUNNY   48  33  56 NW14      30.04F
SPOKANE        PTSUNNY   40  29  64 NE5       30.08F
$$

REGIONAL REPORTS...CANADIAN

CITY           SKY/WX    TMP DP  RH WIND       PRES   REMARKS
EDMONTON       SUNNY     12   1  62 S15       30.28F WCI  -4
CALGARY        CRYSTALS  14   7  73 S20       30.17F WCI  -3
LETHBRIDGE     FLURRIES  18  12  79 S13G20    30.27F WCI   4
MEDICINE HAT   SUNNY     14  -2  48 S9        30.41F WCI   2
SWIFT CURRENT  SUNNY      5  -4  66 S12       30.44F WCI -11
REGINA         SUNNY     -4  -9  77 W6        30.57F WCI -16
SASKATOON      SUNNY      1  -8  66 SW8       30.57F WCI -12
$$



USA.gov is the U.S. government's official web portal to all federal, state and local government web resources and services.